Leadville, CO

3:50 PM MST on January 22, 2018 (GMT -0700)
Lake County

Weather History for KLXV - March, 2013

Change the Weather History Date:

Friday, March 22, 2013

  Actual Average Record
Temperature  
Mean Temperature 17 °F -  
Max Temperature 29 °F 38 °F 52 °F (2004)
Min Temperature 5 °F 13 °F -1 °F (1985)
Degree Days  
Heating Degree Days 48 40  
Month to date heating degree days 913 924  
Since 1 July heating degree days 8455 8634  
Cooling Degree Days 0 0  
Month to date cooling degree days 0 0  
Year to date cooling degree days 0 0  
Moisture  
Dew Point 5 °F    
Average Humidity 54    
Maximum Humidity 80    
Minimum Humidity 27    
Precipitation  
Precipitation T in 0.03 in 0.21 in (2011)
Month to date precipitation 1.12 0.64  
Year to date precipitation 2.74 1.96  
Sea Level Pressure  
Sea Level Pressure 29.66 in    
Wind  
Wind Speed 9 mph (North)    
Max Wind Speed 26 mph    
Max Gust Speed 33 mph    
Visibility 8 miles    
Events Snow    
T = Trace of Precipitation, MM = Missing Value Source: NWS Daily Summary

Daily Weather History Graph

Daily Weather History Graph

Search for Another Location

Airport or City:

Trip Planner

Search our weather history database for the weather conditions in past years. The results will help you decide how hot, cold, wet, or windy it might be!

Date:

Astronomy

Mar. 22, 2013 Rise Set
Actual Time 7:05 AM MDT 7:19 PM MDT
Civil Twilight 6:38 AM MDT 7:46 PM MDT
Nautical Twilight 6:07 AM MDT 8:17 PM MDT
Astronomical Twilight 5:35 AM MDT 8:49 PM MDT
Moon 2:51 PM MDT 4:05 AM MDT
Length of Visible Light 13h 07m
Length of Day
12h 14m
Waxing Gibbous, 78% of the Moon is Illuminated
Mar 22
Waxing Gibbous
Mar 27
Full
Apr 2
Last Quarter
Apr 10
New
Apr 18
First Quarter

Hourly Weather History & Observations

Time (MDT) Temp. Windchill Dew Point Humidity Pressure Visibility Wind Dir Wind Speed Gust Speed Precip Events Conditions
12:53 AM 16.0 °F 6.3 °F 8.1 °F 71% 29.75 in 10.0 mi NNE 6.9 mph - N/A   Clear
1:53 AM 12.0 °F -1.3 °F 5.0 °F 73% 29.78 in 10.0 mi NE 10.4 mph - N/A   Clear
2:53 AM 10.9 °F 1.4 °F 3.0 °F 70% 29.75 in 10.0 mi ENE 5.8 mph - N/A   Clear
3:53 AM 9.0 °F -5.1 °F -0.0 °F 67% 29.74 in 10.0 mi NE 10.4 mph - N/A   Clear
4:53 AM 8.1 °F -4.3 °F -0.9 °F 67% 29.75 in 10.0 mi NE 8.1 mph - N/A   Clear
5:53 AM 10.0 °F -2.9 °F -0.9 °F 61% 29.73 in 10.0 mi NNE 9.2 mph - N/A   Scattered Clouds
6:53 AM 16.0 °F 5.3 °F -0.9 °F 47% 29.71 in 10.0 mi North 8.1 mph - N/A   Mostly Cloudy
7:53 AM 15.1 °F 3.3 °F -2.0 °F 47% 29.73 in 10.0 mi North 9.2 mph - N/A   Clear
8:53 AM 18.0 °F 7.7 °F -0.9 °F 44% 29.69 in 10.0 mi North 8.1 mph - N/A   Clear
9:53 AM 21.0 °F - -2.9 °F 35% 29.68 in 10.0 mi Calm Calm - N/A   Clear
10:53 AM 21.9 °F 13.4 °F -2.0 °F 35% 29.66 in 10.0 mi South 6.9 mph - N/A   Clear
11:53 AM 25.0 °F 14.8 °F -2.9 °F 30% 29.60 in 10.0 mi WSW 10.4 mph - N/A   Clear
12:53 PM 26.1 °F 16.8 °F -2.9 °F 28% 29.59 in 10.0 mi West 9.2 mph 25.3 mph N/A   Clear
1:53 PM 28.0 °F 16.1 °F -0.9 °F 29% 29.57 in 10.0 mi WSW 16.1 mph 24.2 mph N/A   Mostly Cloudy
2:53 PM 27.0 °F 13.9 °F -0.0 °F 31% 29.57 in 9.0 mi SW 18.4 mph 32.2 mph N/A   Mostly Cloudy
3:53 PM 28.0 °F 17.5 °F -2.0 °F 27% 29.56 in 10.0 mi West 12.7 mph 29.9 mph N/A   Mostly Cloudy
4:53 PM 27.0 °F 18.0 °F -0.0 °F 31% 29.57 in 10.0 mi WSW 9.2 mph 20.7 mph N/A   Overcast
5:20 PM 23.0 °F 7.2 °F 8.6 °F 54% 29.64 in 6.0 mi NW 23.0 mph 29.9 mph 0.00 in Snow Light Snow
5:33 PM 21.2 °F 8.3 °F 12.2 °F 68% 29.65 in 2.5 mi NW 13.8 mph - 0.00 in Snow Light Snow
5:53 PM 21.0 °F 9.9 °F 12.9 °F 71% 29.63 in 6.0 mi NNW 10.4 mph - 0.00 in Snow Light Snow
6:15 PM 19.4 °F 11.5 °F 14.0 °F 80% 29.66 in 1.8 mi NW 5.8 mph - 0.00 in Snow Light Snow
6:24 PM 19.4 °F 14.3 °F 15.8 °F 86% 29.66 in 0.5 mi North 3.5 mph - 0.00 in Snow Snow
6:35 PM 19.4 °F - 15.8 °F 86% 29.65 in 1.2 mi Calm Calm - 0.00 in Snow Light Snow
6:41 PM 19.4 °F 12.8 °F 15.8 °F 86% 29.65 in 3.0 mi NE 4.6 mph - 0.00 in Snow Light Snow
6:49 PM 19.4 °F 11.5 °F 15.8 °F 86% 29.64 in 9.0 mi NE 5.8 mph - 0.00 in   Overcast
6:53 PM 19.9 °F 13.4 °F 14.0 °F 78% 29.60 in 10.0 mi NE 4.6 mph - 0.00 in   Overcast
7:53 PM 19.9 °F 10.1 °F 10.9 °F 68% 29.61 in 10.0 mi North 8.1 mph - 0.00 in   Overcast
8:53 PM 19.0 °F 5.0 °F 7.0 °F 59% 29.63 in 10.0 mi NNW 15.0 mph 19.6 mph N/A   Overcast
9:53 PM 16.0 °F 7.4 °F 10.9 °F 81% 29.66 in 10.0 mi NW 5.8 mph - N/A   Overcast
10:53 PM 16.0 °F 7.4 °F 10.0 °F 77% 29.69 in 7.0 mi Variable 5.8 mph - 0.00 in Snow Light Snow
11:53 PM 16.0 °F 8.8 °F 7.0 °F 68% 29.62 in 10.0 mi NE 4.6 mph - N/A   Overcast